Regional Weather Roundup
Issued by NWS Kansas City/Pleasant Hill, MO

Home | Current Version | Previous Version | Text Only | Print | Product List | Glossary On
Versions: 1 2 3 4 5 6 7 8 9 10 11 12 13 14 15 16 17 18 19 20 21 22 23 24 25 26 27 28 29 30 31 32 33 34 35 36 37 38 39 40 41 42 43 44 45 46 47 48 49 50
658
ASUS43 KEAX 061610
RWREAX

WEATHER ROUNDUP FOR EASTERN KANSAS AND NORTHWEST MISSOURI
NATIONAL WEATHER SERVICE KANSAS CITY/PLEASANT HILL MO
1000 AM CST SAT FEB 06 2016

KSZ040-057-103>105-MOZ028-029-037-043-061700-
...KANSAS CITY METROPOLITAN AREA...

CITY           SKY/WX    TMP DP  RH WIND       PRES   REMARKS
K.C. INTL      MOSUNNY   36  30  79 NW5       30.30R WCI  32
K.C. DOWNTOWN  SUNNY     38  29  70 CALM      30.31R
LEES SUMMIT    SUNNY     37  28  70 CALM      30.30R
OLATHE - IXD   SUNNY     34  29  82 W3        30.31R
OLATHE - OJC   SUNNY     37  28  70 CALM      30.30R
LAWRENCE       SUNNY     34  29  82 NW5       30.33R WCI  30

$$

MOZ001>008-011>017-020>025-030>033-038>040-044>046-053-054-061700-
...NORTHERN AND CENTRAL MISSOURI...

CITY           SKY/WX    TMP DP  RH WIND       PRES   REMARKS
ST. JOSEPH     SUNNY     32  29  88 S3        30.31S
MOSBY          SUNNY     34  28  80 CALM      30.31R
WARRENSBURG    SUNNY     37  27  65 CALM      30.30S
WHITEMAN AFB   SUNNY     40  25  55 CALM      30.28F
CLINTON          N/A     39  30  70 CALM      30.32S
SEDALIA        SUNNY     42  24  49 W3        30.30F
WARSAW         NOT AVBL
CHILLICOTHE      N/A     39  28  64 CALM      30.30R
KIRKSVILLE     SUNNY     39  23  52 NW3       30.26S

$$

MOZ041-047>049-056>058-063>065-088>090-097-061700-
...EASTERN AND SOUTHERN MISSOURI...

CITY           SKY/WX    TMP DP  RH WIND       PRES   REMARKS
ST. LOUIS INTL MOSUNNY   44  22  41 SW3       30.32S
SPIRIT OF STL  MOSUNNY   37  28  70 CALM      30.32S
COLUMBIA       SUNNY     42  24  49 W10       30.29S
JEFFERSON CITY SUNNY     41  25  53 CALM      30.32S
ROLLA          SUNNY     42  23  46 SW9       30.30R
OSAGE BEACH    SUNNY     45  25  45 SW10      30.32R
SPRINGFIELD    SUNNY     44  24  45 W7        30.32R
BRANSON        SUNNY     45  18  33 CALM      30.35R
JOPLIN         SUNNY     44  29  55 VRB5      30.34R
WEST PLAINS    SUNNY     45  18  34 W8        30.34R

$$

IAZ060-094-KSZ022-034>040-054-083-096-NEZ052-066-093-061700-
...KANSAS...SOUTHEAST NEBRASKA AND IOWA...

CITY           SKY/WX    TMP DP  RH WIND       PRES   REMARKS
TOPEKA         SUNNY     34  29  82 W5        30.33R WCI  30
MANHATTAN      SUNNY     33  29  85 SW6       30.32F WCI  28
EMPORIA        SUNNY     34  30  85 W5        30.33R WCI  30
CHANUTE        SUNNY     38  28  67 N6        30.33S WCI  33
WICHITA        SUNNY     37  28  70 NW6       30.35R WCI  32
OMAHA          FOG       26  25  96 SE8       30.24S VSB 3/4 WCI  18
LINCOLN        SUNNY     23  21  92 S6        30.25F WCI  16
FALLS CITY     SUNNY     35  31  85 SW7       30.28F WCI  29
LAMONI         FOG       28  27  96 W7        30.26R VSB 1/4 WCI  21
DES MOINES     CLOUDY    30  27  88 W5        30.24S FOG     WCI  25

$$





USA.gov is the U.S. government's official web portal to all federal, state and local government web resources and services.